Location: Saluda
(35.2377°N, 82.3468°W)
Time: 17:50:20
(UTC+00:00)

Transit 2A - Pass Details

Date: 05 October 2022
Orbit: 598 x 959 km, 66.7° (Epoch: 06 December)

Event Time Altitude Azimuth Distance (km) Brightness Sun altitude
Rises 04:24:28 0° 235° (SW) 2,935 - -57.1°
Reaches altitude 10° 04:27:09 10° 249° (WSW) 1,989 - -57.3°
Maximum altitude 04:30:45 24° 304° (NW) 1,265 - -57.6°
Drops below altitude 10° 04:34:18 10° 359° (N) 1,940 - -57.9°
Sets 04:36:53 0° 14° (NNE) 2,846 - -58.0°
